This is the latest recevied weather packets stored in our database for station/object DB0DUS-10. If no packets are shown the sender has not sent any weather packets the latest 10 day(s).
| Time | Temp. | Humidity | Pressure | Rain* | Wind** | Luminosity | Snow |
|---|---|---|---|---|---|---|---|
| 1777660092 | 22.22° C | 26% | 1022.5 hPa | 0 mm | - | - | - |
| 1777658891 | 22.78° C | 24% | 1022.5 hPa | 0 mm | - | - | - |
| 1777658592 | 22.78° C | 24% | 1022.2 hPa | 0 mm | - | - | - |
| 1777657091 | 23.33° C | 23% | 1022.3 hPa | 0 mm | - | - | - |
| 1777655600 | 23.89° C | 22% | 1022.3 hPa | 0 mm | - | - | - |
| 1777655291 | 24.44° C | 22% | 1022.4 hPa | 0 mm | - | - | - |
| 1777654092 | 24.44° C | 21% | 1022.6 hPa | 0 mm | - | - | - |
| 1777653491 | 24.44° C | 21% | 1022.6 hPa | 0 mm | - | - | - |
| 1777652592 | 25° C | 21% | 1022.7 hPa | 0 mm | - | - | - |
| 1777651691 | 25° C | 20% | 1022.8 hPa | 0 mm | - | - | - |
| 1777651093 | 25° C | 20% | 1022.8 hPa | 0 mm | - | - | - |
| 1777649891 | 25° C | 20% | 1023 hPa | 0 mm | - | - | - |
| 1777649592 | 25° C | 19% | 1023 hPa | 0 mm | - | - | - |
| 1777648091 | 26.11° C | 18% | 1023.3 hPa | 0 mm | - | - | - |
| 1777646592 | 26.67° C | 17% | 1023.5 hPa | 0 mm | - | - | - |
| 1777646291 | 26.11° C | 19% | 1023.5 hPa | 0 mm | - | - | - |
| 1777645092 | 26.11° C | 17% | 1023.8 hPa | 0 mm | - | - | - |
| 1777644491 | 26.67° C | 17% | 1023.7 hPa | 0 mm | - | - | - |
| 1777643593 | 26.11° C | 18% | 1023.9 hPa | 0 mm | - | - | - |
| 1777642692 | 26.11° C | 16% | 1024 hPa | 0 mm | - | - | - |
| 1777642092 | 26.67° C | 17% | 1024.3 hPa | 0 mm | - | - | - |
| 1777640891 | 26.11° C | 17% | 1024.4 hPa | 0 mm | - | - | - |
| 1777640592 | 27.22° C | 17% | 1024.3 hPa | 0 mm | - | - | - |
| 1777639091 | 25° C | 19% | 1024.8 hPa | 0 mm | - | - | - |
| 1777637593 | 24.44° C | 19% | 1025.2 hPa | 0 mm | - | - | - |
* Rain latest hour (hover to see other rain measurements)
** Current wind speed in m/s (hover to see current wind gust speed)